TimePST,TemperatureF,Dew PointF,Humidity,Sea Level PressureIn,VisibilityMPH,Wind Direction,Wind SpeedMPH,Gust SpeedMPH,PrecipitationIn,Events,Conditions,WindDirDegrees,DateUTC
12:15 AM,55.4,17.6,23,30.29,10.0,ESE,6.9,-,N/A,,Clear,110,2013-12-26 08:15:00
12:35 AM,55.4,17.6,23,30.29,10.0,East,6.9,-,N/A,,Mostly Cloudy,100,2013-12-26 08:35:00
12:55 AM,53.6,17.6,24,30.29,10.0,East,6.9,-,N/A,,Overcast,100,2013-12-26 08:55:00
1:15 AM,55.4,17.6,23,30.29,10.0,East,6.9,-,N/A,,Overcast,90,2013-12-26 09:15:00
1:35 AM,55.4,17.6,23,30.28,10.0,East,6.9,-,N/A,,Overcast,80,2013-12-26 09:35:00
1:55 AM,53.6,15.8,22,30.29,10.0,ENE,10.4,-,N/A,,Overcast,70,2013-12-26 09:55:00
2:15 AM,53.6,14.0,21,30.29,10.0,East,9.2,-,N/A,,Overcast,80,2013-12-26 10:15:00
2:35 AM,53.6,15.8,22,30.29,10.0,East,8.1,-,N/A,,Scattered Clouds,80,2013-12-26 10:35:00
2:55 AM,53.6,14.0,21,30.29,10.0,East,10.4,-,N/A,,Partly Cloudy,80,2013-12-26 10:55:00
3:15 AM,51.8,14.0,22,30.29,10.0,East,5.8,-,N/A,,Clear,90,2013-12-26 11:15:00
3:35 AM,53.6,14.0,21,30.29,10.0,East,8.1,-,N/A,,Clear,90,2013-12-26 11:35:00
3:55 AM,53.6,14.0,21,30.29,10.0,East,8.1,-,N/A,,Partly Cloudy,100,2013-12-26 11:55:00
4:15 AM,51.8,14.0,22,30.29,10.0,East,6.9,-,N/A,,Clear,90,2013-12-26 12:15:00
4:35 AM,53.6,14.0,21,30.29,10.0,East,9.2,-,N/A,,Clear,90,2013-12-26 12:35:00
4:55 AM,53.6,12.2,19,30.29,10.0,East,8.1,-,N/A,,Clear,80,2013-12-26 12:55:00
5:15 AM,53.6,12.2,19,30.29,10.0,East,6.9,-,N/A,,Clear,80,2013-12-26 13:15:00
5:35 AM,50.0,12.2,22,30.29,10.0,ENE,6.9,-,N/A,,Partly Cloudy,70,2013-12-26 13:35:00
5:55 AM,53.6,12.2,19,30.29,10.0,East,6.9,-,N/A,,Partly Cloudy,90,2013-12-26 13:55:00
6:15 AM,50.0,12.2,22,30.29,10.0,ESE,8.1,-,N/A,,Clear,110,2013-12-26 14:15:00
6:35 AM,50.0,12.2,22,30.28,10.0,East,8.1,-,N/A,,Clear,90,2013-12-26 14:35:00
6:55 AM,48.2,12.2,24,30.28,10.0,East,6.9,-,N/A,,Clear,90,2013-12-26 14:55:00
7:15 AM,50.0,10.4,20,30.28,10.0,East,6.9,-,N/A,,Clear,90,2013-12-26 15:15:00
7:35 AM,55.4,8.6,15,30.28,10.0,ESE,6.9,-,N/A,,Clear,110,2013-12-26 15:35:00
7:55 AM,55.4,10.4,17,30.29,10.0,ESE,5.8,-,N/A,,Clear,110,2013-12-26 15:55:00
8:15 AM,57.2,12.2,17,30.29,10.0,ESE,6.9,-,N/A,,Clear,110,2013-12-26 16:15:00
8:35 AM,59.0,15.8,19,30.30,10.0,SE,3.5,-,N/A,,Clear,130,2013-12-26 16:35:00
8:55 AM,60.8,17.6,19,30.30,10.0,Calm,Calm,-,N/A,,Clear,0,2013-12-26 16:55:00
9:15 AM,59.0,17.6,20,30.30,10.0,Calm,Calm,-,N/A,,Clear,0,2013-12-26 17:15:00
9:35 AM,62.6,17.6,18,30.30,7.0,Calm,Calm,-,N/A,,Clear,0,2013-12-26 17:35:00
9:55 AM,62.6,17.6,18,30.31,8.0,SSE,4.6,-,N/A,,Clear,150,2013-12-26 17:55:00
10:15 AM,62.6,17.6,18,30.31,7.0,SSW,3.5,-,N/A,,Clear,210,2013-12-26 18:15:00
10:35 AM,64.4,19.4,18,30.31,6.0,South,3.5,-,N/A,,Clear,190,2013-12-26 18:35:00
10:55 AM,62.6,23.0,22,30.30,8.0,Calm,Calm,-,N/A,,Clear,0,2013-12-26 18:55:00
11:15 AM,64.4,23.0,21,30.30,10.0,WSW,3.5,-,N/A,,Clear,240,2013-12-26 19:15:00
11:35 AM,66.2,23.0,19,30.29,9.0,West,3.5,-,N/A,,Clear,260,2013-12-26 19:35:00
11:55 AM,66.2,23.0,19,30.28,9.0,South,3.5,-,N/A,,Clear,190,2013-12-26 19:55:00
12:15 PM,66.2,21.2,18,30.27,10.0,WSW,4.6,-,N/A,,Clear,250,2013-12-26 20:15:00
12:35 PM,64.4,23.0,21,30.27,10.0,Calm,Calm,-,N/A,,Clear,0,2013-12-26 20:35:00
12:55 PM,64.4,23.0,21,30.27,10.0,WNW,4.6,-,N/A,,Clear,290,2013-12-26 20:55:00
1:15 PM,64.4,23.0,21,30.26,10.0,Calm,Calm,-,N/A,,Clear,0,2013-12-26 21:15:00
1:35 PM,64.4,24.8,22,30.26,9.0,WNW,4.6,-,N/A,,Clear,290,2013-12-26 21:35:00
1:55 PM,66.2,24.8,21,30.26,10.0,Calm,Calm,-,N/A,,Clear,0,2013-12-26 21:55:00
2:15 PM,66.2,23.0,19,30.25,10.0,Calm,Calm,-,N/A,,Clear,0,2013-12-26 22:15:00
2:35 PM,66.2,24.8,21,30.25,10.0,WSW,4.6,-,N/A,,Clear,250,2013-12-26 22:35:00
2:55 PM,66.2,24.8,21,30.25,10.0,WSW,3.5,-,N/A,,Clear,250,2013-12-26 22:55:00
3:15 PM,64.4,23.0,21,30.25,10.0,Calm,Calm,-,N/A,,Clear,0,2013-12-26 23:15:00
3:35 PM,64.4,24.8,22,30.25,10.0,Calm,Calm,-,N/A,,Clear,0,2013-12-26 23:35:00
3:55 PM,64.4,24.8,22,30.25,10.0,Calm,Calm,-,N/A,,Clear,0,2013-12-26 23:55:00
4:15 PM,62.6,24.8,24,30.24,10.0,Calm,Calm,-,N/A,,Clear,0,2013-12-27 00:15:00
4:35 PM,62.6,24.8,24,30.24,10.0,Calm,Calm,-,N/A,,Clear,0,2013-12-27 00:35:00
4:55 PM,60.8,26.6,27,30.24,10.0,Calm,Calm,-,N/A,,Clear,0,2013-12-27 00:55:00
5:15 PM,60.8,23.0,23,30.24,9.0,Calm,Calm,-,N/A,,Clear,0,2013-12-27 01:15:00
5:35 PM,59.0,26.6,29,30.24,10.0,WSW,3.5,-,N/A,,Clear,240,2013-12-27 01:35:00
5:55 PM,59.0,26.6,29,30.25,10.0,Calm,Calm,-,N/A,,Clear,0,2013-12-27 01:55:00
6:15 PM,57.2,26.6,31,30.25,10.0,Calm,Calm,-,N/A,,Clear,0,2013-12-27 02:15:00
6:35 PM,57.2,26.6,31,30.25,10.0,East,6.9,-,N/A,,Clear,90,2013-12-27 02:35:00
6:55 PM,55.4,26.6,33,30.25,10.0,ESE,6.9,-,N/A,,Clear,110,2013-12-27 02:55:00
7:15 PM,57.2,26.6,31,30.25,10.0,ESE,4.6,-,N/A,,Clear,120,2013-12-27 03:15:00
7:35 PM,57.2,26.6,31,30.26,10.0,SE,4.6,-,N/A,,Clear,130,2013-12-27 03:35:00
7:55 PM,57.2,24.8,29,30.26,10.0,SE,3.5,-,N/A,,Clear,130,2013-12-27 03:55:00
8:15 PM,55.4,26.6,33,30.26,10.0,ESE,4.6,-,N/A,,Clear,120,2013-12-27 04:15:00
8:35 PM,55.4,24.8,31,30.27,10.0,SE,5.8,-,N/A,,Clear,130,2013-12-27 04:35:00
8:55 PM,55.4,23.0,29,30.27,10.0,SE,4.6,-,N/A,,Clear,140,2013-12-27 04:55:00
9:15 PM,53.6,23.0,30,30.27,10.0,ESE,4.6,-,N/A,,Clear,110,2013-12-27 05:15:00
9:35 PM,57.2,23.0,27,30.27,10.0,ESE,6.9,-,N/A,,Clear,110,2013-12-27 05:35:00
9:55 PM,57.2,23.0,27,30.27,10.0,East,5.8,-,N/A,,Clear,90,2013-12-27 05:55:00
10:15 PM,53.6,23.0,30,30.27,10.0,East,5.8,-,N/A,,Clear,100,2013-12-27 06:15:00
10:35 PM,55.4,21.2,26,30.28,10.0,East,6.9,-,N/A,,Clear,100,2013-12-27 06:35:00
10:55 PM,55.4,19.4,25,30.28,10.0,East,6.9,-,N/A,,Clear,100,2013-12-27 06:55:00
11:15 PM,53.6,19.4,26,30.28,10.0,ESE,8.1,-,N/A,,Clear,110,2013-12-27 07:15:00
11:35 PM,55.4,19.4,25,30.29,10.0,ESE,6.9,-,N/A,,Clear,110,2013-12-27 07:35:00
11:55 PM,53.6,19.4,26,30.28,10.0,East,6.9,-,N/A,,Clear,90,2013-12-27 07:55:00